Find FSKL5695-12

NORAD ID: 64886 Int'l Des: NNA 2025-155 Owner: RATEKS Country: RU operational
LEOCIRCULARRETROGRADESSO

Live Position

Loading 3D Globe...

About FSKL5695-12

Description loading...

Upcoming Passes

Passes for default location (London). Set your location on the main map for personalized predictions.

Altitude History

Loading altitude history...

Two-Line Element Set

1 64886U 25155L 26104.88733433 .00018559 00000-0 49825-3 0 9991
2 64886 97.4431 74.7098 0008599 49.1219 311.0770 15.37954908 71192
Epoch: Apr 14, 2026 • Age: 6 hours

Current Status

Altitude 478.1 km
Velocity 7.62 km/s
Sub-Earth Point -51.62°S, 2.57°W
Launch Date Jul 25, 2025
Age 0.7 years
Type other

Technical Details

Classification Payload
Mass 3.00 kg
Dry Mass 3.00 kg
Total Mass 3.00 kg
Length 0.30 m
Diameter 0.10 m
Span 0.30 m
Shape Box
Manufacturer RATEKS
Bus Type Cubesat 3U
Phase Status In Orbit
Owner/State RATEKS/RU

Most Searched